Date String (YYYY-MM-DD hh:mm:ss) UTC,Instrument flags,Ambient pressure (hPa),Sample flow (lpm),Bypass flow (lpm),Sample temperature (°C),Ambient temperature (°C),ASC tube jacket temperature (°C),LED temperature (°C),Box temperature (°C),Sample RH (%),Span deviation,Mass concentration (μg/m³),Mass concentration (μg/m³),Mass concentration (μg/m³)
DateTimeUTC,F1_M11,P_M11,Q1_M11,Q2_M11,T1_M11,T2_M11,T3_M11,T4_M11,T5_M11,U1_M11,ZSPAN_M11,X0_M11,X2_M11,X1_M11
2022-06-18 07:00:00,,0823.4,5.00,0.00,29.6,27.4,00.0,38.3,31.3,21.7,0001.7,0017.25,0010.96,0009.38
2022-06-18 07:01:00,,0823.3,5.00,0.00,29.5,27.4,00.0,38.3,31.2,21.9,0002.0,0017.30,0011.01,0009.37
2022-06-18 07:02:00,,0823.3,4.99,0.00,29.5,27.5,00.0,38.3,31.2,21.9,0002.1,0017.38,0011.02,0009.40
2022-06-18 07:03:00,,0823.3,5.00,0.00,29.5,27.6,00.0,38.3,31.2,22.0,0002.1,0017.30,0011.00,0009.41
2022-06-18 07:04:00,,0823.3,5.00,0.00,29.5,27.7,00.0,38.3,31.3,22.1,0002.0,0016.94,0010.92,0009.40
2022-06-18 07:05:00,,0823.4,5.01,0.00,29.5,27.9,00.0,38.3,31.3,22.2,0002.3,0017.03,0010.94,0009.38
2022-06-18 07:06:00,,0823.3,4.99,0.00,29.5,28.0,00.0,38.3,31.3,22.2,0002.1,0016.68,0010.94,0009.38
2022-06-18 07:07:00,,0823.3,4.99,0.00,29.5,28.1,00.0,38.3,31.4,22.2,0001.8,0016.62,0010.93,0009.41
2022-06-18 07:08:00,,0823.3,5.01,0.00,29.5,28.2,00.0,38.3,31.4,22.3,0001.7,0016.67,0010.96,0009.42
2022-06-18 07:09:00,,0823.3,4.99,0.00,29.5,28.3,00.0,38.3,31.4,22.3,0001.6,0016.46,0011.01,0009.43
2022-06-18 07:10:00,,0823.3,5.00,0.00,29.5,28.4,00.0,38.3,31.5,22.3,0001.7,0016.44,0011.10,0009.46
2022-06-18 07:11:00,,0823.3,4.99,0.00,29.5,28.5,00.0,38.3,31.5,22.3,0001.7,0016.64,0011.16,0009.48
2022-06-18 07:12:00,,0823.4,5.00,0.00,29.6,28.6,00.0,38.3,31.5,22.3,0001.5,0016.64,0011.13,0009.49
2022-06-18 07:13:00,,0823.4,5.00,0.00,29.6,28.6,00.0,38.4,31.5,22.3,0001.2,0017.08,0011.13,0009.48
2022-06-18 07:14:00,,0823.4,5.00,0.00,29.6,28.7,00.0,38.4,31.6,22.3,0001.4,0016.89,0011.10,0009.47
2022-06-18 07:15:00,,0823.4,5.01,0.00,29.6,28.7,00.0,38.4,31.6,22.3,0002.1,0017.00,0011.15,0009.46
2022-06-18 07:16:00,,0823.4,5.00,0.00,29.7,28.8,00.0,38.4,31.6,22.3,0002.3,0016.85,0011.17,0009.48
2022-06-18 07:17:00,,0823.3,5.00,0.00,29.7,28.8,00.0,38.4,31.7,22.2,0002.7,0016.88,0011.18,0009.48
2022-06-18 07:18:00,,0823.4,5.01,0.00,29.7,28.8,00.0,38.5,31.7,22.1,0003.1,0016.96,0011.21,0009.48
2022-06-18 07:19:00,,0823.4,4.99,0.00,29.7,28.3,00.0,38.4,31.6,22.1,0002.9,0016.80,0011.14,0009.46
2022-06-18 07:20:00,,0823.3,4.99,0.00,29.6,27.6,00.0,38.4,31.4,22.1,0002.8,0016.46,0011.00,0009.42
2022-06-18 07:21:00,,0823.4,5.00,0.00,29.6,27.4,00.0,38.3,31.3,22.2,0002.8,0015.92,0010.74,0009.35
2022-06-18 07:22:00,,0823.3,5.01,0.00,29.5,27.4,00.0,38.3,31.2,22.3,0002.4,0015.60,0010.58,0009.25
2022-06-18 07:23:00,,0823.2,4.99,0.00,29.5,27.5,00.0,38.3,31.2,22.4,0002.4,0015.19,0010.43,0009.12
2022-06-18 07:24:00,,0823.2,5.00,0.00,29.5,27.6,00.0,38.3,31.2,22.5,0003.0,0014.67,0010.33,0008.99
2022-06-18 07:25:00,,0823.2,5.00,0.00,29.4,27.7,00.0,38.3,31.3,22.6,0003.1,0014.49,0010.20,0008.86
2022-06-18 07:26:00,,0823.3,5.00,0.00,29.4,27.8,00.0,38.3,31.3,22.5,0002.4,0014.30,0010.03,0008.69
2022-06-18 07:27:00,,0823.2,5.00,0.00,29.4,28.0,00.0,38.3,31.3,22.3,0001.6,0014.04,0009.80,0008.51
2022-06-18 07:28:00,,0823.3,5.01,0.00,29.4,28.1,00.0,38.3,31.3,22.3,0001.2,0013.71,0009.55,0008.30
2022-06-18 07:29:00,,0823.3,4.99,0.00,29.5,28.2,00.0,38.3,31.4,22.3,0001.1,0013.32,0009.27,0008.08
2022-06-18 07:30:00,,0823.3,5.01,0.00,29.5,28.3,00.0,38.3,31.4,22.2,0001.2,0013.12,0009.07,0007.89
2022-06-18 07:31:00,,0823.3,5.00,0.00,29.5,28.3,00.0,38.3,31.4,22.2,0001.5,0012.99,0008.88,0007.69
2022-06-18 07:32:00,,0823.3,4.98,0.00,29.5,28.4,00.0,38.3,31.4,22.1,0001.2,0012.95,0008.73,0007.52
2022-06-18 07:33:00,,0823.3,4.99,0.00,29.5,28.5,00.0,38.4,31.5,22.1,0000.3,0012.76,0008.59,0007.38
2022-06-18 07:34:00,,0823.3,4.99,0.00,29.6,28.5,00.0,38.4,31.5,22.0,0000.0,0012.75,0008.51,0007.30
2022-06-18 07:35:00,,0823.3,5.00,0.00,29.6,28.6,00.0,38.4,31.5,21.9,0000.0,0012.64,0008.44,0007.28
2022-06-18 07:36:00,,0823.3,5.01,0.00,29.6,28.6,00.0,38.4,31.5,21.9,0000.0,0012.55,0008.36,0007.25
2022-06-18 07:37:00,,0823.3,5.01,0.00,29.6,28.7,00.0,38.4,31.6,21.8,0000.0,0012.57,0008.32,0007.23
2022-06-18 07:38:00,,0823.3,5.00,0.00,29.7,28.7,00.0,38.4,31.6,21.7,0000.0,0012.57,0008.27,0007.21
2022-06-18 07:39:00,,0823.3,5.00,0.00,29.7,28.7,00.0,38.4,31.6,21.6,0000.0,0013.38,0008.31,0007.21
2022-06-18 07:40:00,,0823.3,5.00,0.00,29.7,28.8,00.0,38.5,31.7,21.6,0000.0,0013.38,0008.32,0007.22
2022-06-18 07:41:00,,0823.3,4.99,0.00,29.7,28.8,00.0,38.5,31.7,21.5,0000.0,0013.41,0008.32,0007.24
2022-06-18 07:42:00,,0823.3,5.00,0.00,29.7,28.7,00.0,38.5,31.7,21.4,0000.0,0013.49,0008.35,0007.26
2022-06-18 07:43:00,,0823.2,5.00,0.00,29.7,27.9,00.0,38.4,31.5,21.5,0000.4,0013.63,0008.38,0007.26
2022-06-18 07:44:00,,0823.3,5.00,0.00,29.6,27.4,00.0,38.4,31.3,21.5,0002.1,0013.54,0008.36,0007.25
2022-06-18 07:45:00,,0823.2,5.00,0.00,29.6,27.3,00.0,38.4,31.2,21.5,0002.2,0013.75,0008.38,0007.24
2022-06-18 07:46:00,,0823.2,4.99,0.00,29.5,27.4,00.0,38.3,31.2,21.5,0002.0,0013.67,0008.34,0007.20
2022-06-18 07:47:00,,0823.3,5.00,0.00,29.5,27.5,00.0,38.3,31.2,21.5,0001.7,0013.64,0008.34,0007.17
2022-06-18 07:48:00,,0823.3,4.99,0.00,29.4,27.6,00.0,38.3,31.2,21.5,0001.1,0013.60,0008.31,0007.12
2022-06-18 07:49:00,,0823.3,5.01,0.00,29.4,27.8,00.0,38.3,31.3,21.5,0001.0,0013.44,0008.21,0007.06
2022-06-18 07:50:00,,0823.3,5.00,0.00,29.4,27.9,00.0,38.3,31.3,21.5,0001.3,0012.84,0008.17,0007.00
2022-06-18 07:51:00,,0823.3,5.01,0.00,29.4,28.0,00.0,38.3,31.3,21.5,0001.7,0012.67,0008.13,0006.93
2022-06-18 07:52:00,,0823.3,4.99,0.00,29.5,28.1,00.0,38.3,31.3,21.4,0001.6,0012.56,0008.07,0006.88
2022-06-18 07:53:00,,0823.2,5.00,0.00,29.5,28.2,00.0,38.3,31.4,21.2,0002.1,0012.46,0008.00,0006.80
2022-06-18 07:54:00,,0823.2,5.00,0.00,29.5,28.3,00.0,38.3,31.4,21.2,0000.0,0012.20,0007.90,0006.74
2022-06-18 07:55:00,,0823.2,5.01,0.00,29.5,28.4,00.0,38.3,31.4,21.1,0000.0,0012.23,0007.86,0006.67
2022-06-18 07:56:00,,0823.2,4.99,0.00,29.5,28.4,00.0,38.3,31.4,21.0,0000.0,0012.10,0007.78,0006.58
2022-06-18 07:57:00,,0823.2,5.00,0.00,29.5,28.5,00.0,38.4,31.5,20.9,0000.0,0011.94,0007.63,0006.48
2022-06-18 07:58:00,,0823.1,5.00,0.00,29.6,28.5,00.0,38.4,31.5,20.8,0000.0,0012.14,0007.56,0006.38
2022-06-18 07:59:00,,0823.1,5.01,0.00,29.6,28.6,00.0,38.4,31.5,20.7,0000.0,0011.97,0007.38,0006.23
